Orbital Elements at Epoch 2459200.5 (2020-Dec-17.0) TDB
Reference: JPL 21 (heliocentric ecliptic J2000)
Element | Value | Uncertainty (1-sigma) | Units |
e | .1716335114367432 | 4.1778e-08 | |
a | 2.3223134131331 | 1.0775e-08 | au |
q | 1.923726607380418 | 9.7263e-08 | au |
i | 4.537612546498272 | 3.8282e-06 | deg |
node | 241.6179418297385 | 5.6016e-05 | deg |
peri | 74.08826747375967 | 5.7392e-05 | deg |
M | 194.8560846888849 | 1.3858e-05 | deg |
tp | 2459793.479594543734 (2022-Aug-01.97959454) | 5.2138e-05 | TDB |
period | 1292.646196704145 3.54 | 8.9961e-06 2.463e-08 | d yr |
n | .2784984792574259 | 1.9382e-09 | deg/d |
Q | 2.720900218885782 | 1.2624e-08 | au |
|
| | Orbit Determination Parameters
Additional Information
|